Temp
79 77 75 70 60 60 56 59 65 66 67 74 76 71 67 68 65 56 68 73 74 75 76 80 82 83 83 82 82 82 82 82 82 81 82 82 82 82 83 83 83 83 83 83 83 83 83 83 83
76 76 72 66 58 53 55 64 63 67 73 75 76 74 70 64 69 65 67 74 76 76 75 78 81 82 83 82 82 83 83 82 82 82 82 83 82 83 82 83 83 82 83 83 83 83 83 83 84
77 79 66 61 57 54 55 63 66 70 76 74 71 73 69 64 68 68 71 76 76 75 75 77 82 82 83 83 83 83 83 83 82 82 82 83 82 83 83 83 83 83 83 83 83 83 83 84 84
74 70 66 58 56 60 61 64 69 72 74 72 70 65 69 72 71 72 75 76 75 75 77 81 82 83 83 83 83 83 83 82 82 83 82 83 82 82 83 83 83 83 83 83 83 83 83 84 83
74 67 58 57 58 63 66 67 67 66 71 69 73 64 64 71 74 75 75 76 73 73 76 79 82 83 83 83 83 83 82 82 83 82 83 83 83 83 83 82 83 84 84 83 83 83 83 83 84
65 66 57 55 59 63 66 69 67 67 71 71 67 65 65 72 72 74 75 74 76 75 76 78 83 83 83 83 83 83 82 83 83 83 83 81 82 82 83 84 84 84 84 83 83 83 83 83 84
66 59 60 60 60 62 65 69 66 68 69 71 73 65 67 70 73 75 74 74 76 76 75 76 78 81 83 82 82 83 83 83 83 83 82 83 83 82 82 83 84 84 84 84 83 83 83 83 83
68 62 63 62 61 61 69 66 72 70 67 77 76 63 64 70 74 74 74 73 73 74 74 74 75 76 76 78 83 83 83 83 83 82 83 82 83 82 83 82 83 84 84 84 84 84 83 83 83
76 60 58 63 63 65 71 68 72 71 69 77 78 73 73 73 74 71 71 73 73 73 73 74 74 74 75 77 80 83 82 83 83 82 82 80 76 77 79 82 83 84 84 84 84 84 83 84 83
65 60 62 69 72 68 70 69 69 69 69 69 69 72 73 72 71 70 71 71 73 73 72 73 73 74 75 80 77 77 78 77 76 76 75 74 75 76 79 81 84 84 84 84 83 82 82 77 75
65 62 68 73 74 74 70 68 69 67 66 70 66 68 70 70 70 69 70 71 71 74 73 72 73 73 74 75 74 74 75 74 75 75 75 75 75 75 75 73 74 75 78 76 76 74 75 75 74
60 71 72 73 75 71 69 72 68 70 69 74 73 72 71 69 69 69 68 68 71 73 72 72 73 73 73 74 74 74 74 74 74 75 74 73 72 73 73 73 74 73 73 73 73 72 74 74 75
65 72 75 75 72 71 74 70 71 69 74 75 75 73 71 70 70 71 71 71 70 70 72 72 72 72 72 73 73 73 73 74 75 75 75 73 72 73 73 73 72 72 72 72 72 72 73 74 75
72 74 72 73 71 71 69 69 71 73 75 74 73 71 71 71 71 71 71 69 70 71 71 72 72 72 72 72 72 73 73 74 75 75 74 74 72 73 73 72 72 71 71 71 72 72 73 73 75
69 66 69 67 68 68 71 64 65 73 75 71 71 72 72 73 73 72 72 71 72 72 72 71 72 73 72 72 73 73 73 74 74 74 74 75 73 72 73 72 72 72 71 71 72 73 74 74 75
61 60 56 61 67 69 68 58 68 71 71 69 71 73 73 73 74 75 75 74 73 73 71 72 78 74 72 72 73 74 74 74 73 75 74 73 74 73 72 72 72 72 72 72 72 72 73 73 73
55 50 54 60 68 67 65 60 67 70 71 68 70 72 73 73 74 76 77 75 75 74 72 72 74 73 73 73 73 73 74 72 73 73 74 75 74 74 72 72 73 72 72 72 73 72 73 73 74
49 51 51 56 64 65 61 60 65 67 70 69 71 73 73 73 73 76 77 77 77 76 74 74 75 74 72 73 72 72 72 73 74 75 74 75 74 74 74 72 73 72 72 73 73 73 73 74 74
58 56 55 59 66 63 62 62 62 65 67 67 69 72 73 74 76 78 78 78 77 78 74 73 72 72 72 71 71 71 71 72 74 74 76 75 75 75 73 73 73 73 73 73 73 74 74 74 73
57 54 53 65 68 62 59 58 60 63 65 68 69 71 73 75 75 76 77 77 77 76 74 73 73 71 73 73 72 73 72 73 73 74 75 76 75 75 75 74 74 72 72 72 73 74 73 73 73
53 51 53 58 66 62 58 55 56 62 65 68 70 73 73 75 74 75 76 76 77 75 74 74 73 73 74 72 72 71 72 73 73 74 75 75 76 76 75 76 74 73 73 72 74 74 73 73 72
44 62 63 60 55 49 57 46 51 58 60 64 65 67 69 72 76 77 76 76 76 76 77 76 75 73 74 72 72 71 71 71 72 73 75 74 76 76 77 76 75 74 74 73 74 75 74 74 73
57 64 60 59 52 48 52 49 50 56 57 61 65 67 68 70 74 77 78 77 77 78 77 77 75 74 74 73 73 72 71 72 73 74 74 74 75 76 77 76 75 74 74 74 74 74 74 74 73
66 58 53 49 47 42 49 49 49 53 57 64 67 69 70 70 72 75 79 79 78 79 78 77 74 73 73 73 71 71 72 71 71 72 73 74 74 75 76 77 74 74 74 74 75 75 75 75 73
57 49 39 39 39 40 42 49 52 59 63 64 66 69 72 73 73 74 76 77 76 76 77 76 73 72 73 73 72 71 72 72 72 72 73 73 73 74 75 76 75 75 75 75 75 76 75 76 76
49 48 41 35 35 41 45 45 53 62 64 66 67 69 72 72 75 75 78 77 77 77 76 76 73 73 73 73 72 71 71 74 73 73 73 74 75 76 76 76 76 76 76 76 75 75 74 76 76
49 45 46 40 36 41 44 51 59 62 63 64 65 67 68 71 73 75 79 79 78 77 76 75 74 74 74 74 73 71 71 71 73 72 73 74 75 78 77 77 76 76 75 76 75 74 74 75 76
52 50 44 41 36 35 41 42 46 53 57 61 62 62 65 68 71 74 77 79 80 79 79 77 76 75 75 76 75 74 72 72 73 73 73 74 75 76 76 76 76 76 76 76 75 75 75 75 76
45 42 40 40 38 36 36 40 53 52 55 57 61 64 65 65 67 72 77 79 81 80 80 78 77 75 75 76 76 75 73 71 71 73 74 75 75 75 75 76 76 76 75 76 74 75 76 75 75
46 41 37 38 36 35 37 41 57 56 58 60 61 63 66 67 65 69 74 78 80 79 79 78 78 77 77 76 76 76 75 73 72 72 73 75 75 74 74 75 76 76 76 76 75 75 76 75 75
MSLP
1011.55 1011.73 1011.82 1012.01 1012.65 1012.11 1011.50 1011.44 1011.05 1010.16 1009.83 1009.81 1010.53 1011.17 1011.94 1012.37 1013.43 1014.83 1014.53 1014.64 1014.78 1015.61 1015.97 1016.16 1016.39 1016.57 1016.81 1017.04 1017.23 1017.42 1017.56 1017.65 1017.84 1017.78 1017.89 1017.92 1017.97 1018.01 1017.98 1017.98 1017.96 1017.98 1018.02 1018.03 1018.13 1018.21 1018.24 1018.29 1018.33
1011.71 1012.00 1012.05 1012.29 1012.58 1012.39 1011.81 1011.51 1010.97 1010.19 1009.51 1009.89 1010.37 1010.99 1011.86 1012.95 1013.44 1014.24 1014.62 1014.88 1014.80 1015.50 1016.05 1016.23 1016.53 1016.80 1017.05 1017.19 1017.37 1017.58 1017.69 1017.88 1018.05 1018.07 1018.11 1018.15 1018.15 1018.24 1018.21 1018.23 1018.29 1018.33 1018.25 1018.30 1018.38 1018.52 1018.57 1018.61 1018.67
1011.71 1011.75 1012.22 1012.37 1012.20 1012.53 1011.79 1011.29 1010.74 1009.94 1009.53 1009.96 1010.80 1011.37 1012.32 1013.43 1013.88 1014.24 1014.41 1014.78 1015.08 1015.74 1016.13 1016.40 1016.69 1016.99 1017.23 1017.35 1017.51 1017.70 1017.83 1017.98 1018.22 1018.24 1018.34 1018.40 1018.49 1018.37 1018.33 1018.43 1018.48 1018.61 1018.56 1018.64 1018.72 1018.75 1018.75 1018.85 1018.94
1011.67 1012.03 1012.55 1012.45 1012.05 1012.31 1011.86 1011.42 1011.03 1010.56 1010.46 1010.63 1011.28 1012.06 1013.08 1013.37 1013.92 1014.17 1014.71 1014.75 1015.42 1015.99 1016.17 1016.46 1016.79 1017.11 1017.36 1017.52 1017.59 1017.91 1018.07 1018.21 1018.33 1018.45 1018.53 1018.54 1018.67 1018.75 1018.62 1018.71 1018.83 1018.96 1019.07 1019.04 1019.07 1019.07 1019.08 1019.14 1019.29
1011.58 1011.93 1012.23 1012.13 1011.97 1011.73 1011.45 1011.69 1011.56 1011.31 1010.89 1011.11 1011.38 1012.73 1013.59 1014.00 1013.98 1014.59 1014.94 1015.27 1015.59 1016.19 1016.31 1016.60 1016.84 1017.17 1017.39 1017.68 1017.81 1018.10 1018.32 1018.40 1018.57 1018.77 1018.79 1018.73 1018.83 1018.89 1018.99 1019.09 1019.25 1019.21 1019.27 1019.35 1019.38 1019.41 1019.42 1019.40 1019.43
1011.71 1011.83 1012.04 1011.69 1011.58 1011.46 1011.38 1011.47 1011.61 1011.45 1011.15 1011.36 1012.04 1012.85 1013.97 1014.41 1014.42 1015.11 1015.30 1015.58 1015.76 1016.26 1016.45 1016.76 1016.99 1017.22 1017.53 1017.85 1018.05 1018.23 1018.46 1018.62 1018.69 1018.85 1018.93 1018.99 1019.02 1019.11 1019.10 1019.24 1019.42 1019.49 1019.67 1019.74 1019.70 1019.75 1019.78 1019.66 1019.66
1011.53 1011.73 1011.45 1011.20 1011.25 1011.23 1011.15 1011.57 1011.65 1011.19 1011.09 1011.20 1011.71 1012.80 1014.08 1014.66 1014.92 1015.32 1015.70 1015.87 1016.03 1016.39 1016.55 1016.95 1017.20 1017.35 1017.63 1017.97 1018.20 1018.39 1018.50 1018.64 1018.82 1018.98 1019.19 1019.21 1019.22 1019.43 1019.15 1019.52 1019.50 1019.62 1019.88 1020.08 1020.09 1020.03 1020.01 1020.01 1020.10
1011.15 1011.41 1011.01 1011.19 1011.11 1011.22 1011.00 1011.24 1011.24 1011.22 1011.46 1011.22 1011.38 1012.59 1013.81 1014.52 1015.08 1015.62 1016.08 1016.33 1016.63 1016.74 1016.85 1017.15 1017.43 1017.60 1017.88 1018.05 1018.20 1018.38 1018.55 1018.76 1018.94 1019.14 1019.23 1019.38 1019.43 1019.62 1019.68 1019.84 1019.72 1019.89 1020.11 1020.27 1020.34 1020.32 1020.28 1020.32 1020.43
1010.90 1011.07 1010.65 1010.20 1010.42 1010.53 1010.53 1010.81 1011.21 1011.68 1011.61 1011.10 1011.20 1012.08 1013.25 1014.43 1015.19 1015.87 1016.42 1016.85 1017.12 1017.19 1017.26 1017.35 1017.66 1017.84 1018.05 1018.23 1018.32 1018.42 1018.73 1018.82 1018.92 1019.20 1019.43 1019.64 1019.85 1019.92 1020.03 1020.06 1020.15 1020.25 1020.37 1020.43 1020.51 1020.58 1020.60 1020.50 1020.65
1010.97 1010.88 1010.23 1009.71 1009.54 1009.77 1010.32 1010.63 1010.93 1011.25 1011.43 1011.83 1012.03 1012.84 1013.89 1014.67 1015.33 1015.90 1016.38 1016.78 1017.18 1017.33 1017.49 1017.57 1017.81 1018.08 1018.19 1018.28 1018.52 1018.74 1018.96 1019.07 1019.34 1019.53 1019.80 1019.93 1020.02 1020.02 1020.24 1020.35 1020.41 1020.53 1020.68 1020.73 1020.82 1020.83 1021.00 1021.18 1021.31
1010.85 1010.51 1009.85 1009.36 1009.22 1009.42 1009.92 1010.39 1010.82 1011.10 1011.59 1011.62 1012.35 1013.22 1014.18 1014.84 1015.43 1015.99 1016.46 1016.59 1016.90 1017.21 1017.52 1017.67 1017.82 1018.17 1018.34 1018.49 1018.80 1019.09 1019.35 1019.56 1019.66 1019.87 1020.05 1020.10 1020.27 1020.23 1020.39 1020.73 1020.87 1021.03 1021.13 1021.36 1021.45 1021.57 1021.57 1021.62 1021.70
1010.70 1009.93 1009.47 1009.25 1009.23 1009.61 1010.05 1010.32 1010.84 1011.00 1011.44 1011.51 1012.31 1013.38 1014.26 1014.92 1015.41 1015.85 1016.41 1016.79 1016.97 1017.29 1017.50 1017.58 1017.78 1018.23 1018.50 1018.61 1018.91 1019.30 1019.55 1019.76 1019.91 1020.10 1020.25 1020.40 1020.59 1020.57 1020.83 1021.03 1021.19 1021.40 1021.59 1021.68 1021.83 1021.93 1021.93 1021.95 1021.99
1010.44 1009.68 1009.09 1008.93 1009.26 1009.53 1009.86 1010.29 1010.50 1010.86 1011.28 1011.73 1012.64 1013.51 1014.39 1014.95 1015.44 1015.88 1016.21 1016.79 1016.99 1017.29 1017.48 1017.57 1017.69 1018.27 1018.57 1018.75 1019.00 1019.33 1019.64 1019.79 1019.96 1020.20 1020.37 1020.54 1020.63 1020.67 1021.01 1021.25 1021.43 1021.62 1021.85 1022.04 1022.15 1022.17 1022.12 1022.23 1022.20
1009.63 1009.37 1008.91 1008.54 1009.00 1009.57 1009.93 1010.44 1010.43 1010.53 1011.10 1011.95 1012.66 1013.42 1014.17 1014.67 1015.31 1015.85 1016.27 1016.63 1016.96 1017.22 1017.47 1017.65 1017.76 1018.23 1018.56 1018.77 1018.99 1019.35 1019.69 1019.88 1020.03 1020.22 1020.42 1020.62 1020.77 1020.82 1020.98 1021.32 1021.64 1021.89 1021.95 1022.15 1022.38 1022.39 1022.32 1022.47 1022.41
1009.33 1009.29 1008.64 1008.66 1008.81 1009.72 1010.09 1010.92 1010.37 1010.44 1010.77 1011.56 1012.39 1013.12 1013.79 1014.40 1015.16 1015.40 1015.68 1016.12 1016.47 1016.90 1017.36 1017.68 1017.73 1018.01 1018.52 1018.69 1018.96 1019.29 1019.59 1019.92 1020.11 1020.12 1020.42 1020.52 1020.77 1020.91 1021.05 1021.29 1021.54 1021.81 1022.05 1022.16 1022.32 1022.43 1022.38 1022.48 1022.36
1009.64 1009.56 1009.34 1009.35 1009.38 1009.95 1010.05 1010.42 1010.21 1010.70 1010.87 1011.36 1012.11 1012.66 1013.35 1013.91 1014.43 1014.85 1015.23 1015.82 1016.37 1016.86 1017.28 1017.63 1017.78 1017.97 1018.37 1018.61 1018.83 1019.15 1019.53 1019.77 1019.99 1020.14 1020.22 1020.65 1020.67 1020.87 1021.11 1021.24 1021.43 1021.83 1021.99 1022.12 1022.34 1022.40 1022.49 1022.60 1022.61
1010.44 1010.23 1009.76 1009.77 1009.73 1010.07 1010.45 1010.29 1010.41 1010.93 1011.25 1011.43 1011.84 1012.33 1012.83 1013.68 1014.26 1014.63 1015.00 1015.33 1015.81 1016.39 1017.07 1017.44 1017.62 1017.84 1018.19 1018.37 1018.67 1019.01 1019.36 1019.71 1019.90 1020.01 1020.23 1020.43 1020.78 1020.73 1021.06 1021.29 1021.27 1021.73 1022.03 1022.24 1022.30 1022.57 1022.66 1022.75 1022.89
1010.74 1010.49 1010.10 1009.83 1009.91 1010.01 1010.51 1010.21 1010.76 1010.92 1011.21 1011.33 1011.70 1012.25 1012.73 1013.20 1013.64 1014.09 1014.70 1015.13 1015.59 1016.03 1016.76 1017.14 1017.40 1017.71 1017.99 1018.32 1018.87 1019.19 1019.37 1019.55 1019.73 1019.83 1020.15 1020.46 1020.70 1020.76 1020.85 1021.25 1021.29 1021.65 1022.02 1022.37 1022.42 1022.53 1022.65 1022.94 1023.07
1010.31 1010.37 1010.34 1009.88 1009.63 1009.92 1010.05 1010.04 1010.81 1011.18 1011.66 1011.77 1011.81 1012.13 1012.49 1012.72 1013.14 1013.79 1014.26 1014.86 1015.41 1015.93 1016.61 1017.04 1017.24 1017.57 1017.97 1018.45 1018.98 1019.39 1019.35 1019.44 1019.63 1019.73 1019.87 1020.21 1020.55 1020.74 1020.77 1021.09 1021.45 1021.63 1021.98 1022.26 1022.44 1022.75 1022.93 1023.07 1023.19
1010.35 1010.20 1010.32 1009.84 1009.69 1009.93 1009.95 1010.48 1010.97 1011.13 1011.23 1011.38 1011.38 1011.80 1012.14 1012.60 1013.02 1013.51 1014.15 1014.67 1015.11 1015.56 1015.99 1016.82 1017.05 1017.42 1017.78 1017.96 1018.21 1018.55 1018.81 1019.15 1019.27 1019.61 1019.83 1020.07 1020.38 1020.49 1020.75 1021.03 1021.25 1021.63 1021.96 1022.13 1022.37 1022.58 1022.93 1023.05 1023.17
1010.30 1010.35 1010.24 1010.24 1009.95 1010.19 1010.53 1011.01 1011.46 1011.45 1011.30 1011.36 1011.51 1011.77 1011.90 1012.12 1012.51 1013.01 1013.65 1014.36 1014.75 1015.44 1015.85 1016.27 1016.67 1016.93 1017.53 1017.95 1018.15 1018.47 1018.79 1019.15 1019.53 1019.79 1019.81 1019.87 1020.07 1020.41 1020.77 1020.80 1021.11 1021.35 1021.71 1022.05 1022.18 1022.45 1022.83 1023.05 1023.37
1010.19 1010.06 1010.17 1010.60 1010.88 1011.07 1011.08 1011.82 1011.78 1011.69 1011.54 1011.41 1011.42 1011.45 1011.58 1011.81 1012.13 1012.49 1013.13 1013.79 1014.33 1014.76 1015.27 1015.75 1016.38 1016.87 1017.38 1018.04 1018.17 1018.21 1018.54 1019.06 1019.25 1019.34 1019.52 1019.72 1019.90 1020.15 1020.46 1020.73 1021.05 1021.38 1021.56 1021.91 1022.18 1022.15 1022.42 1022.83 1023.11
1009.85 1009.95 1010.43 1010.85 1011.52 1011.81 1011.83 1012.25 1011.97 1011.81 1011.77 1011.00 1010.86 1011.17 1011.15 1011.41 1011.56 1011.94 1012.39 1013.08 1013.52 1014.13 1014.82 1015.40 1016.02 1016.61 1017.05 1017.75 1017.99 1018.16 1018.53 1018.68 1018.91 1019.28 1019.47 1019.74 1019.93 1020.06 1020.30 1020.78 1021.13 1021.27 1021.46 1021.79 1022.05 1022.26 1022.45 1022.62 1022.93
1009.54 1010.65 1011.55 1012.23 1012.75 1013.15 1012.31 1012.42 1012.19 1012.06 1010.97 1010.03 1010.41 1010.45 1010.76 1010.89 1011.04 1011.47 1011.89 1012.43 1013.07 1013.67 1014.27 1014.84 1015.70 1016.02 1016.59 1017.07 1017.71 1017.97 1018.15 1018.55 1018.92 1019.34 1019.55 1019.75 1019.90 1020.02 1020.27 1020.51 1021.15 1021.38 1021.46 1021.55 1021.71 1021.87 1022.18 1022.44 1022.69
1010.16 1011.63 1013.13 1014.14 1014.25 1014.01 1012.92 1012.61 1012.06 1011.41 1010.51 1009.95 1009.58 1009.78 1010.04 1010.26 1010.63 1011.03 1011.18 1011.75 1012.42 1013.08 1013.65 1014.37 1015.10 1015.83 1016.03 1016.67 1017.17 1017.64 1017.80 1017.89 1018.37 1018.79 1019.12 1019.51 1019.78 1019.87 1020.03 1020.29 1020.66 1020.97 1021.05 1021.25 1021.39 1021.67 1021.97 1022.32 1022.54
1010.99 1011.75 1013.14 1014.23 1015.01 1014.37 1013.42 1012.53 1012.07 1011.38 1010.63 1009.51 1009.42 1009.58 1009.79 1010.06 1010.37 1010.63 1010.64 1011.02 1011.52 1012.27 1013.01 1013.84 1014.43 1015.04 1015.64 1016.01 1016.59 1017.09 1017.57 1017.67 1017.77 1018.15 1018.63 1018.88 1019.19 1019.29 1019.38 1019.88 1020.26 1020.68 1020.92 1021.17 1021.40 1021.53 1021.88 1021.99 1022.48
1012.00 1012.74 1013.55 1014.75 1015.69 1015.09 1014.32 1012.78 1012.11 1011.80 1011.15 1010.80 1010.48 1010.21 1010.03 1009.83 1009.59 1009.73 1010.05 1010.33 1010.92 1011.60 1012.07 1012.89 1013.65 1014.40 1015.00 1015.19 1015.94 1016.55 1017.11 1017.44 1017.49 1017.67 1018.07 1018.39 1018.69 1018.88 1019.07 1019.56 1019.94 1020.36 1020.68 1021.01 1021.31 1021.67 1021.83 1022.04 1022.31
1012.67 1013.89 1014.64 1015.41 1016.55 1016.42 1015.42 1014.52 1014.19 1013.41 1012.94 1012.29 1011.62 1011.39 1010.84 1010.25 1009.73 1009.32 1008.93 1008.97 1009.53 1010.27 1011.23 1012.20 1012.81 1013.26 1013.87 1014.61 1015.11 1015.86 1016.38 1016.86 1017.17 1017.39 1017.70 1017.99 1018.19 1018.43 1018.89 1019.24 1019.62 1020.01 1020.33 1020.70 1021.08 1021.47 1021.75 1022.03 1022.23
1014.70 1015.32 1016.15 1016.64 1017.11 1017.06 1016.61 1016.20 1015.50 1015.11 1014.67 1013.85 1013.00 1012.11 1011.47 1010.70 1009.85 1008.96 1008.37 1008.38 1008.40 1009.21 1010.19 1011.05 1012.02 1012.75 1013.37 1013.98 1014.57 1015.09 1015.79 1016.43 1016.89 1017.09 1017.16 1017.37 1017.79 1018.09 1018.53 1018.87 1019.30 1019.75 1020.06 1020.29 1020.84 1021.24 1021.53 1021.79 1022.06
1016.57 1017.26 1017.68 1017.89 1018.66 1017.97 1017.03 1016.74 1015.84 1015.53 1015.31 1015.03 1014.13 1013.37 1012.00 1010.89 1009.91 1008.46 1008.24 1008.41 1008.63 1008.90 1009.49 1010.04 1010.95 1011.95 1012.44 1013.15 1013.93 1014.31 1014.88 1015.55 1016.36 1016.71 1016.77 1016.93 1017.26 1017.57 1017.96 1018.51 1018.98 1019.36 1019.66 1019.96 1020.43 1020.86 1021.14 1021.39 1021.53
Wind_Speed
5 5 2 1 2 2 2 3 2 3 4 4 13 6 8 5 4 3 4 6 16 14 7 10 12 12 10 8 11 10 9 8 8 7 8 8 9 8 8 7 8 9 10 11 11 11 10 11 11
5 4 2 2 1 3 3 4 6 7 2 16 7 10 3 3 4 7 7 10 18 13 6 6 11 11 11 9 10 10 9 8 7 6 7 7 8 8 7 8 7 8 10 10 11 11 9 10 11
6 1 1 0 3 2 1 5 8 5 15 8 5 7 3 3 6 11 9 15 15 11 7 7 12 12 12 10 10 10 9 8 8 8 7 7 7 7 8 8 9 9 9 10 11 11 11 11 10
4 1 1 1 3 1 1 4 11 4 8 9 4 8 5 4 8 7 14 15 14 10 7 10 13 12 12 11 10 9 9 8 8 8 7 6 7 9 8 9 9 10 10 10 10 10 11 10 8
1 2 2 2 3 2 1 1 6 8 1 6 0 4 7 2 13 15 14 13 14 9 6 8 13 13 12 10 8 8 8 9 9 7 6 7 6 6 9 9 10 11 11 11 9 9 9 7 6
1 2 1 1 1 3 2 5 5 4 2 9 8 5 4 10 15 12 12 11 11 11 6 6 13 12 11 11 9 9 9 8 9 8 7 7 6 7 7 10 9 10 10 10 10 9 8 8 10
1 1 2 4 3 2 3 5 2 1 6 6 7 4 5 10 12 11 10 10 10 8 6 5 5 9 11 10 10 10 10 9 8 7 6 6 7 6 8 10 9 10 11 9 9 9 8 8 10
1 1 2 3 4 3 5 5 1 8 9 7 12 6 8 11 14 11 10 9 8 6 5 5 4 5 4 5 9 9 9 9 8 7 7 6 5 6 8 8 9 11 11 10 9 9 10 10 9
1 2 2 1 5 7 8 7 3 1 2 2 4 7 16 16 15 13 12 11 9 6 5 5 5 5 5 4 5 8 10 8 8 6 7 5 3 4 5 5 9 10 10 10 9 9 9 10 11
2 1 4 2 3 3 7 6 6 2 4 7 14 19 19 17 15 16 15 14 13 12 6 5 5 5 5 3 4 3 3 3 4 3 4 3 3 3 4 5 9 10 10 10 10 6 8 7 4
4 2 4 2 4 7 5 8 5 7 1 3 17 19 19 17 14 14 12 13 11 12 7 5 5 5 4 3 3 1 1 2 2 3 3 2 2 2 2 3 3 4 8 3 4 4 3 4 3
2 9 6 5 5 6 6 9 3 5 4 12 18 19 17 17 14 13 11 9 11 13 8 6 6 5 4 3 2 2 1 2 2 2 3 2 1 1 2 2 3 3 2 3 2 2 3 3 3
4 6 7 8 10 5 8 7 2 7 8 15 18 18 16 14 13 10 9 7 8 9 7 8 6 5 4 4 3 3 2 2 2 2 2 2 2 2 2 2 3 3 3 2 2 2 2 3 1
2 6 10 7 9 6 9 4 1 6 11 15 17 17 15 14 13 9 9 9 9 8 7 7 6 6 5 4 4 3 3 3 2 2 2 3 2 2 1 2 3 2 2 2 2 2 2 2 1
3 2 5 6 5 6 10 2 6 4 12 14 19 17 16 14 12 13 13 12 13 9 7 9 8 7 6 6 5 3 3 3 3 2 4 4 3 3 3 2 2 2 3 4 1 1 1 1 1
3 4 2 1 3 7 0 4 5 8 13 16 19 17 17 15 17 12 13 10 10 7 8 8 9 8 7 6 5 3 3 3 3 3 3 5 3 4 3 3 3 3 2 3 2 0 1 2 2
6 3 2 4 6 6 2 5 6 7 10 15 16 18 16 14 15 13 13 13 13 11 9 10 9 9 9 6 4 4 4 3 3 3 3 3 4 5 3 2 2 4 2 2 2 1 1 2 1
3 5 2 4 5 4 5 11 5 10 10 13 16 17 16 16 18 16 15 13 12 11 9 10 9 8 7 3 3 2 2 2 3 3 3 4 3 4 4 3 3 3 2 2 1 1 2 1 0
3 5 3 2 4 3 7 10 4 9 6 11 12 13 18 16 13 15 15 14 12 11 9 9 9 7 6 3 3 3 3 3 2 3 5 5 4 5 3 3 4 3 3 2 2 1 1 1 1
3 1 1 3 2 4 3 3 4 6 6 10 15 13 15 14 13 13 14 14 14 15 14 9 10 7 7 4 3 3 3 2 3 2 3 4 5 4 5 4 4 4 3 3 3 2 2 0 1
2 4 2 3 4 4 2 4 2 1 2 4 7 12 8 14 16 16 16 16 15 14 13 13 13 11 8 6 5 3 4 3 2 2 2 3 5 4 4 4 3 3 4 3 2 2 3 2 1
1 7 5 3 3 2 2 3 2 3 4 4 5 8 8 8 11 17 17 17 16 16 14 14 12 11 9 7 6 7 5 4 3 4 3 3 4 4 4 3 3 4 3 4 3 2 1 2 2
7 4 6 4 3 3 3 5 5 2 7 14 13 10 9 7 8 15 18 18 18 17 15 14 13 11 11 10 8 6 5 3 3 2 4 4 3 4 4 4 3 3 3 4 4 4 3 1 2
4 6 8 6 4 2 5 6 5 5 7 12 11 14 12 10 9 8 14 17 16 15 15 14 13 13 12 12 8 9 10 7 5 4 4 3 2 3 3 4 4 4 3 4 4 4 3 3 3
6 7 2 3 3 6 3 4 6 7 9 11 12 14 16 15 10 12 15 17 16 17 16 14 14 13 12 12 11 9 10 10 9 6 4 5 3 2 4 5 4 3 4 4 3 3 3 3 2
3 8 7 6 6 3 4 4 1 5 9 8 6 6 11 12 12 13 15 16 18 18 17 16 15 15 13 12 12 9 8 7 6 7 4 5 5 5 4 5 5 5 4 4 3 2 2 3 3
3 5 3 9 4 5 2 3 3 9 16 15 13 4 4 10 15 16 17 16 17 18 19 19 17 16 14 15 11 10 8 7 9 8 6 5 5 5 5 5 6 5 5 5 4 3 3 3 3
8 1 3 4 5 3 3 3 4 13 16 16 16 9 8 6 8 12 15 17 17 19 19 18 18 20 18 17 13 11 12 10 9 8 8 7 6 6 5 7 7 6 6 5 5 4 3 4 3
6 6 6 6 4 7 5 3 5 6 7 11 14 15 11 9 10 11 15 17 18 17 19 19 17 17 16 16 14 12 10 9 7 9 10 10 7 6 7 7 8 8 8 7 6 5 4 5 4
5 4 3 6 3 1 3 3 4 8 10 9 14 16 15 12 11 10 11 13 15 16 17 19 18 17 17 16 14 15 12 11 10 9 9 9 9 7 8 7 7 8 9 8 8 8 7 6 6
Wind_Direction
143 111 128 56 330 271 341 19 321 313 117 158 143 137 170 112 169 190 133 147 131 140 153 155 152 154 151 139 151 140 125 116 114 107 106 116 114 113 122 123 120 118 112 102 92 95 90 96 96
122 141 44 94 343 330 7 9 313 277 129 133 89 116 100 106 81 119 109 147 134 139 142 150 154 156 150 141 145 142 137 123 117 120 118 126 121 116 115 135 127 117 116 103 101 103 103 99 103
152 263 44 359 124 240 320 26 352 10 128 134 98 47 53 89 97 142 130 135 130 132 135 155 155 156 152 148 151 148 144 136 143 132 130 122 108 123 127 114 130 125 119 121 107 106 110 106 103
160 127 81 90 41 117 17 338 354 134 81 53 78 75 73 281 137 129 135 132 125 129 139 156 155 154 156 157 159 153 143 137 153 137 125 126 120 124 123 124 119 115 116 108 108 110 110 108 98
299 31 93 177 183 240 155 285 357 322 36 103 200 84 109 349 109 126 133 131 128 129 142 143 156 155 160 159 145 148 147 160 138 133 139 125 112 107 118 115 118 110 116 110 108 106 108 102 119
85 154 234 93 41 342 358 3 343 303 122 120 95 109 89 124 122 137 129 127 130 132 133 146 155 159 156 163 161 156 157 151 145 145 129 126 119 121 116 116 110 108 105 106 106 102 92 82 123
238 142 284 125 134 59 345 26 278 5 148 101 129 90 106 132 131 128 122 120 124 125 131 134 147 168 161 152 162 155 158 148 139 141 132 126 128 123 120 113 112 114 107 102 102 98 86 89 115
234 149 297 70 100 219 195 189 198 44 61 140 145 142 156 150 127 118 114 111 111 116 124 131 123 115 132 139 158 163 153 147 142 143 136 120 110 113 111 108 111 104 103 103 104 108 99 84 105
218 360 347 173 147 167 183 180 95 173 360 216 130 130 124 134 124 119 125 130 131 126 133 130 125 128 130 140 178 167 150 153 148 135 126 89 66 79 80 112 100 102 108 113 113 112 104 98 111
128 211 213 263 152 187 138 164 131 105 351 72 87 109 127 134 136 143 151 154 157 160 152 146 138 140 142 139 123 135 149 105 103 102 99 94 98 119 112 109 109 107 103 110 112 102 86 69 59
180 235 214 164 151 148 143 146 134 138 213 161 143 140 143 144 145 149 158 163 165 168 161 159 151 143 146 119 120 97 91 107 113 119 113 97 80 51 93 63 66 72 88 53 62 61 45 60 77
191 229 247 165 153 141 168 129 129 177 111 133 145 143 147 152 157 158 157 161 166 174 162 163 160 150 144 139 138 136 138 127 127 139 138 126 109 99 102 102 98 89 81 92 83 71 77 77 103
208 274 247 232 167 143 142 161 175 209 108 130 145 145 154 159 163 169 158 156 160 174 165 174 162 153 151 167 156 152 168 177 159 157 160 147 171 155 112 107 108 102 99 87 98 80 85 97 133
214 221 257 256 187 145 137 146 201 181 139 137 157 153 162 169 170 152 158 167 174 180 175 163 175 154 160 178 177 171 174 192 178 173 195 162 164 165 180 138 129 133 138 126 145 133 116 100 300
259 292 334 11 108 145 120 69 232 140 145 147 165 161 169 172 169 177 175 180 177 189 169 168 178 162 172 190 180 177 194 179 199 211 194 209 202 207 171 182 173 147 158 123 116 137 116 94 68
44 48 66 279 119 152 159 244 198 157 163 156 164 173 172 176 181 184 182 178 173 175 180 168 186 182 175 189 184 177 185 203 212 200 197 163 209 189 173 185 182 142 140 129 135 58 27 40 45
10 145 116 98 172 132 192 253 148 163 174 164 172 179 177 177 186 190 187 180 178 180 174 174 180 183 186 191 184 179 185 202 225 178 194 207 181 212 171 181 166 131 115 117 147 125 135 57 33
187 114 23 115 196 166 185 259 130 165 201 174 179 181 178 188 188 193 187 191 181 177 183 185 184 185 180 147 120 134 175 207 191 205 183 191 168 202 198 140 147 141 127 126 84 90 60 78 183
135 115 118 255 236 199 231 248 167 161 181 184 191 190 189 192 187 190 188 188 184 179 173 190 180 184 164 145 146 157 189 164 177 194 194 185 184 172 149 141 145 162 184 168 153 126 125 71 181
141 93 183 279 175 184 320 315 123 150 190 196 192 194 191 190 186 187 189 188 186 188 182 182 193 177 188 173 154 157 152 162 125 152 196 168 185 186 166 170 180 160 154 141 166 151 125 84 129
151 160 201 184 340 35 107 353 105 54 44 115 202 202 195 195 186 192 184 192 188 197 186 185 196 185 188 177 125 78 77 69 89 163 191 193 184 172 195 180 157 157 151 158 183 165 176 163 104
209 203 187 183 79 189 78 277 321 195 214 244 214 186 189 192 181 189 186 190 190 198 197 192 187 187 186 174 170 155 156 152 193 181 174 175 171 181 182 189 177 169 148 153 174 193 159 155 135
212 137 172 173 135 63 330 80 266 172 229 230 216 206 198 198 187 190 189 192 194 190 196 194 189 188 183 187 187 166 155 158 146 149 172 177 177 195 183 167 196 191 182 166 176 173 185 132 131
109 84 37 43 89 62 231 125 282 192 232 245 216 209 204 203 203 184 190 190 194 195 192 188 189 194 184 182 190 184 171 165 148 162 178 183 192 181 196 183 176 201 182 196 187 185 168 154 118
94 81 19 27 43 208 344 89 230 295 279 233 221 212 204 210 203 198 187 193 191 192 191 188 187 202 187 187 189 193 189 172 177 176 176 166 176 205 207 178 184 201 195 203 191 167 166 180 157
123 149 153 162 168 211 15 196 200 309 326 355 196 193 186 201 218 215 205 194 192 192 190 194 189 197 196 185 196 191 196 188 178 175 174 186 189 201 178 186 185 192 201 183 191 180 204 174 193
158 66 171 104 12 84 241 297 330 359 14 10 22 37 235 202 210 203 211 200 194 194 192 193 191 200 199 195 190 190 188 191 191 180 173 179 188 202 182 183 192 194 190 191 181 196 203 214 189
93 108 74 13 120 141 310 64 306 347 348 347 357 352 327 301 237 218 204 197 195 194 195 194 196 196 197 200 188 195 193 196 195 182 182 184 191 196 181 185 193 193 199 186 186 205 200 200 228
1 18 38 107 98 147 153 279 18 321 324 337 338 341 330 304 276 240 217 208 199 191 190 193 196 197 196 199 202 192 190 189 185 198 195 191 184 184 195 192 187 195 198 193 189 209 208 213 209
70 75 87 114 220 30 114 229 59 352 348 355 347 344 334 323 322 253 223 208 199 197 193 193 192 195 200 198 197 200 192 181 189 205 205 190 193 182 188 187 195 197 199 194 196 202 204 210 230